Temperature
19 19 18 18 20 22 23 23 24 24 24 23 23 24 24 23 23 21 18 18 18 18 18 18 18 18 18 18 18 18 18 18 18 18 18 18 18 18 19 18 19 19 19 19 19 19 19 19 19
19 19 18 19 21 23 23 23 24 24 23 23 23 23 23 22 20 19 18 18 18 18 18 18 18 18 18 18 18 18 18 18 18 18 18 18 18 18 18 18 18 18 18 18 18 18 18 18 19
19 19 19 21 22 23 23 23 24 23 23 23 23 22 22 21 19 18 18 18 18 17 17 17 18 18 18 18 18 18 18 18 18 18 18 18 18 18 18 18 18 18 18 18 18 18 18 18 18
18 19 20 23 23 23 23 24 23 23 23 22 23 22 21 19 18 18 18 18 18 17 17 17 18 18 18 17 17 17 17 17 17 17 17 17 17 17 17 17 18 18 18 18 18 18 18 18 18
19 21 22 23 23 24 24 24 23 24 24 23 23 23 21 18 18 18 17 17 17 17 17 17 18 17 17 17 17 17 17 17 17 17 17 17 17 17 17 17 17 17 18 18 18 18 18 18 18
20 22 23 24 24 24 24 23 24 24 24 23 23 22 20 18 18 17 17 17 17 17 17 17 17 17 17 17 17 17 17 17 17 17 17 17 17 17 17 17 17 17 17 17 17 17 17 17 18
21 23 23 24 24 24 24 23 24 24 24 23 23 23 20 18 18 17 17 17 17 17 17 17 17 17 17 17 17 16 16 16 16 16 16 16 16 16 17 17 17 17 17 17 17 17 17 17 17
21 23 24 24 24 24 23 23 23 23 23 22 22 23 21 19 18 17 17 17 17 17 17 16 16 16 16 16 16 16 16 16 16 16 16 16 16 16 16 16 16 17 17 17 17 17 17 17 17
20 23 24 24 24 24 23 23 23 22 22 22 21 22 21 19 18 18 18 17 17 17 17 16 16 16 16 15 15 15 15 15 15 15 15 16 15 15 16 16 16 16 16 16 17 17 17 17 17
22 23 24 24 24 24 24 24 23 23 23 22 21 20 19 19 18 18 18 18 18 17 17 16 16 16 15 15 15 15 15 14 14 14 15 15 15 15 15 15 16 16 16 16 16 16 17 16 17
23 24 24 24 23 23 23 23 23 24 24 23 22 20 19 19 19 19 19 19 18 17 17 16 16 16 15 15 15 14 14 14 14 14 14 14 14 15 15 15 15 15 15 16 16 16 16 16 16
23 23 23 23 22 22 23 23 23 23 24 23 22 21 20 20 20 19 19 19 18 17 17 16 16 16 15 15 14 14 14 14 14 14 14 14 14 14 15 15 15 15 15 15 15 16 16 16 16
23 23 22 22 22 22 23 23 23 23 22 22 21 20 20 20 20 19 19 18 18 17 16 16 15 15 15 14 14 14 14 14 14 13 13 14 14 14 14 14 14 14 15 15 15 15 16 16 16
23 23 22 22 22 22 23 23 23 23 22 21 21 21 20 20 20 19 19 18 18 17 17 16 15 15 15 14 14 14 14 13 13 13 13 13 14 14 14 14 14 14 14 14 15 15 15 15 16
22 23 23 23 23 23 23 23 24 23 22 22 21 21 21 20 20 19 19 19 18 17 17 16 15 15 14 14 14 14 13 14 13 13 13 13 13 13 13 14 14 14 14 14 14 15 15 15 15
23 23 23 24 23 23 23 24 25 23 22 22 22 22 21 20 20 19 19 18 18 17 16 16 15 15 14 14 13 13 13 13 13 13 13 13 13 13 13 13 13 13 14 14 14 14 15 15 15
23 24 24 24 23 23 24 24 25 22 22 23 22 22 21 21 20 20 19 18 17 17 16 16 15 14 14 13 13 13 13 13 13 13 13 12 13 13 13 13 13 13 13 14 14 14 14 15 15
24 24 24 24 24 23 24 25 25 23 23 23 23 22 22 21 21 20 19 18 17 17 16 15 15 14 14 13 13 13 13 13 12 12 12 12 12 12 13 13 13 13 13 13 13 14 14 14 14
25 24 24 24 24 23 24 25 25 24 23 23 23 23 22 22 21 20 18 18 17 17 16 15 15 14 13 13 13 13 13 13 12 12 12 12 12 12 12 12 12 12 13 13 13 13 14 14 14
24 24 25 25 24 24 24 25 26 25 24 24 24 23 23 22 21 19 18 18 17 17 16 15 15 14 13 13 13 12 12 12 12 12 12 12 12 12 12 12 12 12 12 12 13 13 13 14 14
24 24 25 24 24 24 24 25 26 26 24 23 22 23 23 22 21 20 19 18 17 17 16 15 15 14 13 13 12 12 12 12 12 12 12 12 12 12 12 12 12 12 12 12 12 13 13 13 14
24 24 24 24 24 25 24 24 26 26 24 24 23 22 22 21 21 20 19 18 17 17 16 15 15 14 13 13 13 13 12 13 12 12 12 12 12 11 11 11 11 12 12 12 12 12 13 13 13
24 23 24 24 24 24 25 24 26 25 25 25 24 23 22 21 20 20 19 18 18 17 16 15 15 14 13 13 13 12 13 12 12 12 12 12 12 11 11 11 11 12 12 12 12 12 12 13 13
23 23 23 24 24 24 25 24 25 26 26 26 25 23 22 21 20 19 19 18 17 17 16 16 15 14 14 13 13 12 12 12 12 12 12 12 12 11 11 11 11 11 12 12 12 12 12 12 12
23 24 24 24 24 24 24 23 25 26 25 25 24 24 22 21 20 19 19 18 18 17 16 16 15 14 14 13 13 13 12 12 12 12 12 12 12 12 11 11 11 11 11 11 11 12 12 12 12
24 25 24 23 24 25 24 24 26 26 24 23 22 22 22 21 20 19 19 19 18 17 17 16 15 15 14 14 13 13 12 12 12 12 12 12 12 12 11 11 11 11 11 11 11 12 12 12 12
24 25 25 25 24 23 25 25 26 25 24 24 23 22 22 21 20 19 19 19 18 17 17 16 15 15 14 14 13 13 13 12 12 12 12 12 12 11 11 11 11 11 11 11 11 12 12 12 12
25 25 24 24 23 23 24 24 25 26 26 25 24 23 22 21 20 19 19 19 18 18 17 16 16 15 15 14 14 13 13 13 12 12 12 12 12 12 11 11 11 11 11 11 11 11 11 11 11
23 24 24 24 24 23 23 25 26 26 25 25 25 24 23 21 20 20 19 19 18 17 17 16 16 15 15 14 14 13 13 13 13 12 12 12 12 12 12 11 11 11 11 11 11 11 11 11 11
24 25 24 24 24 23 23 24 27 25 25 24 24 24 22 21 21 20 19 19 18 18 17 16 16 15 15 15 14 14 14 13 13 13 13 12 12 12 12 12 12 12 11 11 11 11 11 11 11
Wind_Speed
12 10 4 2 2 2 1 1 1 2 3 4 4 3 4 5 4 4 4 4 5 6 6 7 4 3 3 3 2 2 3 3 3 3 3 3 4 4 4 4 4 3 3 3 2 2 1 1 1
10 7 3 2 2 2 1 1 3 4 5 4 4 4 4 6 5 5 5 6 6 6 6 5 6 4 3 3 2 1 1 2 3 3 4 5 5 5 5 5 5 4 4 4 4 4 3 2 2
9 4 3 2 2 1 2 2 4 5 4 2 3 3 3 4 4 4 5 6 6 7 7 8 7 5 5 4 4 4 3 3 4 4 5 5 6 6 6 6 5 5 5 5 5 5 5 4 3
6 3 3 3 2 1 2 3 4 5 3 3 3 5 5 5 3 6 7 7 8 7 7 9 7 7 6 5 5 4 4 4 5 5 5 5 6 7 7 7 6 6 6 6 6 6 6 6 5
4 3 4 3 3 2 2 3 4 2 2 3 3 5 6 5 7 8 8 7 8 7 7 8 7 6 6 5 4 3 3 4 4 5 4 4 6 7 8 8 8 7 7 7 7 7 7 8 6
4 3 3 3 4 3 3 4 3 3 4 4 4 5 5 7 8 8 8 7 7 7 6 7 7 6 6 5 4 3 3 2 3 4 4 4 5 5 5 6 7 7 8 8 8 10 9 9 8
3 3 3 2 3 3 4 4 3 3 4 4 3 5 6 8 8 7 7 6 6 5 5 4 4 4 4 5 5 6 5 4 3 4 4 4 4 5 5 6 6 7 8 9 9 10 10 9 8
3 3 3 2 3 4 5 4 2 2 4 4 3 3 5 10 9 8 6 6 5 4 3 3 3 4 4 4 5 6 5 5 4 3 3 3 4 4 5 6 5 6 7 8 8 9 9 9 8
3 4 3 2 2 4 6 5 4 2 5 4 2 3 7 12 11 9 7 5 4 3 2 3 3 4 4 4 5 4 3 3 4 3 1 5 6 5 5 4 4 5 5 6 7 8 8 9 7
5 3 1 1 1 2 5 5 6 5 6 5 6 7 10 12 11 8 6 4 3 2 2 2 3 3 4 5 5 5 6 5 5 5 5 5 5 5 6 3 4 5 5 6 7 7 8 9 7
4 3 1 2 2 3 5 5 5 5 4 5 8 12 13 12 10 7 5 3 2 1 1 2 2 3 4 4 5 5 5 5 5 5 5 5 5 5 5 4 4 5 6 6 6 7 7 7 7
4 3 2 2 3 4 5 4 5 6 2 3 8 13 13 12 9 7 5 3 2 1 1 1 2 3 4 5 5 5 5 5 5 5 6 5 4 5 5 4 4 4 4 3 5 4 6 7 8
6 3 4 4 5 5 5 6 5 6 4 6 10 12 12 11 9 7 5 4 3 2 1 0 2 4 5 5 5 5 5 6 6 5 5 6 5 5 5 5 4 5 4 4 4 4 5 6 7
4 4 4 4 5 5 6 6 5 6 7 10 12 13 12 10 9 7 6 5 4 3 2 1 1 3 4 5 5 5 5 4 5 5 5 6 5 5 5 5 4 5 4 4 4 4 4 4 4
4 4 4 5 6 4 5 7 8 6 10 12 12 12 12 11 10 8 7 5 4 3 2 1 1 2 4 5 5 5 5 5 5 5 6 6 6 6 5 5 5 5 5 5 4 4 4 4 4
5 5 5 5 6 5 6 6 4 8 11 12 12 12 12 11 11 9 7 6 4 4 2 1 1 2 3 4 5 4 4 5 4 5 5 6 6 6 5 5 5 5 5 4 4 4 4 4 4
6 6 6 4 6 5 7 6 3 8 10 11 12 12 12 12 11 9 8 7 5 4 3 2 0 1 2 3 3 3 3 4 4 4 5 6 7 7 6 5 5 5 4 4 4 3 4 4 4
7 6 5 4 5 7 9 9 5 7 10 11 12 12 12 12 11 9 9 7 6 5 4 2 1 1 2 2 3 2 3 3 3 4 5 6 6 7 6 5 5 6 4 4 3 3 3 3 4
4 5 4 2 2 6 10 11 10 9 11 12 13 13 13 12 10 9 9 8 8 7 5 3 2 0 1 2 3 3 3 3 3 4 5 5 6 6 6 5 5 5 4 5 5 4 4 3 3
6 6 5 2 2 5 8 12 12 10 13 13 13 14 14 12 11 10 10 10 9 8 6 4 2 1 1 1 3 3 3 3 3 3 3 5 5 6 5 6 5 5 4 5 5 4 3 2 2
8 8 6 5 3 5 7 10 8 7 10 11 12 13 13 13 13 12 12 11 10 8 7 4 3 2 1 0 1 2 2 2 2 3 3 4 5 5 6 6 6 5 5 4 5 4 3 3 2
8 4 6 5 6 4 4 8 6 5 8 11 12 13 13 13 13 12 12 12 11 9 7 6 4 3 2 2 2 3 3 3 3 4 3 4 3 4 5 5 5 5 4 4 4 4 4 3 2
2 1 3 5 7 9 7 8 6 3 6 8 10 12 13 13 13 13 13 12 11 9 8 6 5 4 3 2 1 3 3 3 3 3 3 4 3 4 4 5 5 5 4 4 5 5 4 3 3
5 4 3 4 6 8 5 6 6 3 3 2 5 9 12 12 13 12 11 11 10 9 8 7 6 5 4 4 4 3 3 3 4 3 4 3 3 3 4 4 4 4 4 4 4 4 4 3 3
7 6 4 5 5 4 0 6 6 3 3 4 4 4 9 11 13 13 13 13 12 11 10 9 8 6 6 5 5 4 4 4 4 4 3 4 3 3 4 4 5 5 5 4 4 4 4 3 3
8 8 5 5 5 6 4 6 5 2 3 5 5 5 7 11 12 13 13 13 12 12 11 10 9 7 6 6 5 5 4 4 3 3 4 4 4 4 4 5 5 4 5 4 3 4 3 3 3
5 7 4 7 7 8 6 5 7 4 5 6 5 6 8 10 12 13 13 12 12 12 12 11 10 8 7 6 5 5 4 4 4 4 4 4 3 3 4 4 4 4 4 4 4 3 3 3 3
3 3 4 5 6 8 7 7 5 4 3 5 7 7 8 9 11 12 12 12 12 11 11 10 10 8 7 7 6 4 5 4 4 4 4 4 4 3 4 4 4 3 3 3 3 3 3 4 3
5 5 6 6 6 7 9 6 2 5 5 5 6 7 8 9 11 12 12 12 11 11 11 10 10 9 8 7 7 6 5 4 4 4 4 4 4 3 4 3 4 4 3 3 3 4 3 4 4
6 8 9 10 9 8 10 9 2 5 6 6 7 7 8 9 10 11 11 12 12 12 11 11 10 9 8 7 7 6 5 5 5 4 4 4 3 3 4 3 3 3 3 3 4 3 4 4 4
Wind_Direction
146 144 156 191 215 217 179 38 24 75 69 63 52 48 48 39 19 56 75 85 112 128 132 137 135 140 145 154 172 185 199 205 210 218 220 224 230 229 226 227 230 232 234 234 238 246 244 221 205
147 151 181 210 226 169 123 83 88 69 96 100 72 62 69 70 59 80 85 88 106 113 119 111 102 96 86 72 55 351 284 271 261 255 251 250 249 246 245 247 248 251 255 254 255 256 251 250 253
147 174 214 213 209 169 128 109 108 100 100 89 86 65 58 72 74 81 88 106 105 98 98 87 78 77 74 67 54 39 10 337 311 290 276 272 266 264 262 263 262 263 262 261 262 263 256 252 254
161 189 220 223 182 155 133 135 133 128 114 96 114 99 87 62 67 93 103 107 102 96 89 84 69 65 63 62 59 48 18 352 334 314 295 292 287 279 273 269 265 262 266 268 271 272 269 262 258
195 215 215 208 187 157 163 160 170 158 119 114 116 105 100 89 98 107 105 101 100 99 94 86 68 57 50 46 46 45 17 344 326 312 308 296 283 274 273 272 272 268 267 266 265 268 266 262 256
195 225 226 204 167 145 154 165 170 146 121 125 124 114 106 120 124 116 112 106 101 97 92 88 82 58 42 30 25 19 10 344 326 316 316 312 301 290 280 277 271 268 268 267 265 260 254 253 253
232 232 236 208 167 152 143 159 178 150 134 128 134 121 128 141 135 131 124 115 107 99 88 74 68 68 63 49 30 16 4 353 334 322 316 314 308 295 285 276 271 264 261 263 261 258 258 251 251
252 248 219 200 179 148 146 159 151 151 117 119 158 139 143 154 150 143 137 129 120 106 88 68 48 30 20 32 48 17 7 1 344 330 325 306 273 262 267 266 269 265 260 259 261 259 258 251 250
232 240 221 179 173 140 158 167 152 149 144 146 143 86 122 143 154 156 154 149 136 111 85 63 39 32 18 1 22 354 350 355 303 280 284 279 282 281 259 271 277 263 261 257 256 263 261 250 239
216 241 220 139 170 150 175 185 166 172 173 167 147 130 137 153 165 169 169 161 149 124 91 54 25 18 6 356 354 342 337 339 323 323 317 301 296 288 285 249 251 258 255 247 239 246 248 243 234
211 236 199 182 198 191 185 192 186 193 194 187 168 157 158 166 174 177 176 167 143 126 77 24 7 10 359 353 348 346 339 336 326 331 320 305 297 288 279 283 251 248 242 249 235 236 233 230 232
203 211 217 203 184 201 200 191 198 213 198 149 159 158 164 174 179 184 183 175 175 183 43 16 355 359 359 354 349 336 338 337 336 335 329 319 311 303 304 292 301 287 266 258 256 249 241 235 234
212 195 199 210 205 212 208 207 217 215 190 162 156 164 173 179 181 184 188 189 199 197 204 16 345 351 354 356 338 338 344 339 339 336 326 327 316 313 310 299 298 288 287 270 266 259 249 244 234
201 196 199 204 202 204 210 215 217 210 179 170 172 177 182 184 189 191 197 206 207 207 205 165 326 350 343 343 340 350 344 341 337 343 338 335 329 324 313 304 300 299 294 290 276 266 256 247 238
169 197 213 213 208 202 213 225 221 195 179 182 185 187 189 192 197 207 208 212 209 202 199 177 303 335 342 344 344 342 338 342 347 353 344 343 337 329 320 313 310 310 301 288 276 270 263 248 238
187 215 226 199 201 195 218 246 192 181 189 193 195 192 196 200 208 211 210 211 202 200 195 177 271 327 346 345 334 336 340 343 345 347 348 347 344 338 331 323 321 316 305 294 282 274 263 257 250
202 220 225 194 197 200 223 257 185 182 198 204 203 201 202 205 212 210 208 207 201 200 199 197 264 326 340 339 327 330 336 339 341 348 355 351 349 341 337 336 329 324 313 302 295 288 278 269 262
207 222 230 222 189 214 234 252 230 202 213 219 213 210 209 214 211 206 202 200 197 199 197 181 177 290 333 324 322 331 327 331 345 351 357 351 345 346 340 332 336 335 323 317 311 299 282 278 269
225 235 248 250 198 233 252 263 255 226 221 225 221 217 217 217 209 197 194 194 196 196 199 186 215 209 310 332 328 335 342 335 341 349 355 347 346 346 344 337 344 339 337 330 322 311 290 280 275
231 248 256 239 196 248 274 275 267 241 230 230 227 221 217 213 205 195 195 195 200 196 196 196 194 204 293 349 336 334 332 325 339 331 338 346 348 347 342 345 339 345 337 335 335 326 306 291 272
234 252 273 284 261 237 284 277 253 232 229 229 229 228 222 213 210 199 196 196 196 196 193 193 191 190 200 262 316 308 301 285 308 340 350 349 345 345 342 344 340 342 336 343 341 335 323 304 287
240 263 266 259 262 273 277 296 281 225 229 226 223 219 218 210 208 200 195 196 196 192 187 190 186 194 190 219 288 320 320 335 346 337 343 337 345 346 342 341 341 342 344 343 338 350 331 311 303
248 6 239 246 263 278 258 277 285 210 243 224 215 214 212 206 202 197 195 194 192 184 183 188 187 194 200 227 252 282 305 330 331 326 333 331 357 351 351 346 344 344 343 346 344 340 336 323 312
155 165 175 216 253 269 280 271 285 245 248 220 202 207 206 201 198 195 190 188 186 181 183 188 194 198 204 223 238 262 297 306 317 325 337 333 347 347 1 347 342 342 344 342 338 331 334 335 326
205 233 240 240 244 273 165 263 269 291 270 267 256 217 200 194 192 190 187 187 186 187 189 192 198 204 208 221 236 248 264 283 294 313 327 325 337 346 354 342 334 339 339 337 332 324 331 329 325
210 238 264 285 289 299 247 257 276 303 265 266 257 238 201 192 193 192 191 190 189 190 192 197 203 209 211 223 234 243 249 265 286 296 305 311 324 337 337 331 331 334 332 327 332 321 328 327 321
200 224 276 286 290 287 275 271 285 250 249 238 226 212 201 194 193 194 192 192 191 192 194 198 203 210 212 220 228 238 248 259 273 279 286 298 307 319 319 319 323 329 331 331 327 326 329 324 314
284 198 209 256 286 287 284 280 282 298 286 233 220 214 204 196 195 195 193 194 194 193 194 197 205 211 211 216 222 230 245 250 263 275 284 291 295 304 302 310 315 321 323 319 318 316 330 314 314
182 205 236 256 268 283 292 293 319 301 305 272 241 222 209 200 198 196 194 194 192 191 192 196 202 208 209 214 217 222 231 242 252 258 271 275 282 282 290 303 307 316 321 317 316 312 313 307 310
243 244 237 257 264 259 278 284 286 265 280 273 257 230 215 207 201 198 196 192 191 194 195 198 202 204 206 210 214 221 226 231 241 245 254 262 272 279 286 295 297 305 310 312 315 315 309 308 311
Height
1522 1523 1525 1528 1528 1526 1523 1519 1514 1515 1516 1519 1519 1518 1518 1520 1523 1530 1531 1528 1530 1531 1532 1533 1534 1535 1536 1537 1537 1538 1538 1538 1538 1539 1539 1539 1539 1539 1539 1539 1539 1538 1538 1538 1538 1538 1538 1537 1537
1522 1524 1527 1527 1525 1527 1525 1518 1517 1517 1519 1520 1521 1521 1521 1524 1527 1529 1529 1529 1530 1532 1533 1534 1534 1535 1535 1536 1536 1537 1537 1537 1538 1538 1538 1538 1538 1538 1538 1538 1538 1538 1538 1538 1538 1537 1537 1537 1537
1523 1524 1527 1524 1522 1523 1522 1518 1517 1519 1521 1521 1522 1523 1524 1527 1529 1530 1530 1531 1532 1532 1533 1533 1534 1535 1535 1535 1536 1536 1536 1536 1536 1536 1536 1536 1537 1537 1537 1537 1536 1536 1537 1537 1537 1536 1537 1536 1536
1523 1526 1526 1522 1520 1517 1517 1517 1518 1520 1521 1522 1523 1524 1527 1530 1531 1531 1531 1532 1533 1533 1534 1534 1534 1534 1535 1535 1535 1535 1534 1535 1535 1534 1535 1534 1535 1535 1535 1535 1535 1535 1535 1535 1536 1535 1535 1536 1536
1523 1524 1521 1520 1517 1515 1516 1517 1519 1519 1520 1522 1523 1525 1529 1531 1531 1532 1533 1534 1534 1535 1535 1534 1534 1534 1534 1534 1534 1533 1533 1533 1532 1532 1532 1532 1532 1532 1532 1532 1532 1532 1533 1533 1534 1534 1534 1534 1534
1523 1520 1519 1519 1516 1515 1517 1519 1519 1519 1521 1523 1524 1526 1530 1532 1533 1533 1534 1535 1535 1535 1535 1535 1534 1534 1534 1533 1533 1532 1532 1531 1531 1530 1530 1530 1530 1530 1530 1530 1530 1530 1530 1531 1531 1532 1532 1532 1533
1521 1517 1516 1514 1515 1516 1517 1519 1519 1519 1521 1524 1525 1526 1530 1533 1533 1534 1535 1535 1536 1536 1535 1535 1535 1534 1533 1532 1531 1531 1530 1530 1529 1528 1527 1527 1527 1527 1527 1527 1527 1527 1528 1528 1528 1529 1530 1530 1530
1519 1517 1515 1514 1515 1516 1518 1519 1520 1521 1523 1526 1527 1526 1530 1533 1533 1534 1535 1536 1536 1536 1536 1535 1534 1534 1533 1532 1530 1529 1528 1528 1527 1526 1525 1525 1525 1524 1524 1524 1524 1525 1525 1525 1526 1526 1527 1527 1528
1519 1518 1515 1514 1514 1515 1517 1519 1521 1523 1524 1526 1527 1528 1530 1532 1533 1535 1536 1537 1537 1536 1536 1535 1534 1533 1532 1531 1530 1528 1527 1526 1525 1525 1523 1523 1523 1523 1522 1522 1521 1521 1522 1522 1523 1523 1523 1525 1525
1517 1515 1513 1513 1513 1514 1517 1518 1520 1522 1523 1525 1527 1528 1530 1531 1533 1535 1536 1537 1537 1537 1536 1535 1534 1533 1532 1530 1529 1527 1527 1525 1524 1523 1522 1522 1521 1520 1520 1519 1518 1518 1518 1519 1519 1520 1520 1521 1522
1514 1513 1512 1514 1515 1516 1517 1518 1520 1520 1521 1522 1525 1527 1530 1532 1533 1535 1536 1536 1537 1536 1535 1535 1534 1532 1531 1530 1529 1527 1525 1524 1523 1522 1521 1520 1520 1519 1519 1518 1517 1516 1516 1516 1516 1517 1518 1518 1520
1513 1513 1514 1514 1516 1517 1517 1518 1519 1519 1520 1522 1524 1526 1529 1531 1533 1534 1535 1536 1536 1535 1535 1534 1533 1532 1531 1530 1528 1526 1525 1523 1522 1521 1519 1519 1518 1517 1517 1516 1515 1515 1514 1514 1514 1514 1515 1515 1516
1512 1513 1514 1514 1516 1516 1517 1518 1518 1519 1521 1522 1524 1526 1528 1530 1532 1533 1534 1534 1535 1534 1534 1533 1532 1532 1530 1528 1526 1526 1524 1523 1521 1519 1518 1517 1517 1516 1515 1514 1513 1513 1512 1512 1511 1512 1512 1512 1513
1511 1513 1514 1514 1515 1516 1516 1517 1518 1517 1520 1521 1523 1525 1527 1529 1531 1532 1533 1533 1534 1534 1533 1532 1531 1530 1529 1528 1527 1525 1524 1522 1521 1519 1518 1516 1516 1514 1513 1513 1512 1511 1510 1510 1509 1509 1509 1510 1510
1512 1513 1513 1513 1514 1515 1516 1515 1514 1515 1518 1520 1522 1524 1526 1528 1529 1531 1532 1532 1533 1533 1532 1531 1530 1529 1528 1527 1525 1524 1523 1522 1520 1519 1517 1516 1514 1513 1512 1511 1510 1509 1508 1508 1507 1507 1507 1507 1508
1510 1511 1513 1510 1512 1513 1517 1513 1510 1513 1516 1517 1519 1521 1524 1526 1527 1529 1530 1531 1531 1531 1531 1530 1529 1528 1527 1525 1524 1524 1523 1521 1520 1518 1517 1515 1514 1512 1511 1510 1509 1507 1506 1506 1505 1505 1505 1505 1506
1510 1511 1510 1509 1510 1511 1512 1509 1508 1512 1513 1515 1517 1519 1521 1523 1525 1527 1528 1529 1529 1529 1529 1529 1528 1527 1526 1524 1523 1522 1522 1520 1519 1518 1516 1514 1513 1511 1510 1508 1507 1506 1505 1504 1504 1504 1504 1504 1504
1509 1508 1508 1508 1508 1510 1509 1506 1506 1509 1511 1511 1514 1516 1518 1520 1522 1524 1525 1526 1527 1528 1528 1527 1526 1526 1525 1524 1523 1522 1521 1520 1519 1517 1515 1513 1512 1510 1509 1508 1506 1505 1504 1503 1502 1502 1502 1502 1502
1502 1505 1507 1506 1506 1508 1506 1503 1501 1504 1507 1508 1510 1512 1514 1516 1519 1521 1522 1524 1525 1526 1526 1526 1526 1525 1524 1524 1523 1522 1521 1520 1518 1517 1514 1513 1511 1510 1509 1507 1506 1504 1503 1502 1502 1501 1501 1501 1501
1504 1506 1505 1504 1506 1506 1503 1500 1496 1498 1501 1503 1504 1507 1510 1513 1516 1518 1519 1521 1523 1524 1524 1525 1525 1524 1523 1522 1522 1521 1520 1519 1517 1516 1514 1513 1511 1509 1509 1507 1506 1504 1502 1501 1500 1500 1499 1499 1499
1504 1506 1504 1506 1505 1504 1505 1498 1492 1493 1497 1500 1502 1503 1505 1509 1512 1515 1517 1519 1520 1522 1523 1523 1523 1523 1522 1521 1521 1520 1519 1518 1518 1516 1514 1512 1510 1509 1507 1506 1505 1503 1502 1501 1500 1499 1499 1498 1498
1505 1502 1505 1506 1507 1503 1506 1506 1491 1489 1493 1495 1497 1499 1502 1505 1508 1511 1514 1516 1518 1519 1520 1522 1522 1522 1521 1521 1521 1520 1520 1519 1517 1516 1514 1512 1510 1509 1507 1505 1504 1503 1502 1501 1500 1499 1498 1498 1498
1502 1505 1504 1504 1504 1504 1501 1504 1491 1488 1489 1488 1491 1494 1498 1501 1505 1508 1510 1513 1515 1517 1518 1519 1520 1520 1520 1520 1519 1519 1519 1518 1517 1515 1514 1512 1510 1508 1506 1505 1504 1503 1502 1500 1499 1498 1497 1497 1497
1505 1505 1505 1503 1502 1509 1500 1504 1496 1484 1484 1484 1487 1491 1494 1498 1501 1505 1508 1510 1512 1514 1515 1517 1518 1518 1518 1518 1518 1518 1518 1517 1516 1515 1514 1512 1511 1509 1507 1505 1504 1502 1501 1500 1499 1498 1497 1496 1496
1504 1505 1509 1510 1509 1505 1500 1503 1493 1481 1483 1485 1487 1489 1492 1495 1498 1501 1504 1506 1509 1511 1513 1515 1516 1517 1517 1517 1517 1517 1516 1516 1516 1515 1513 1512 1511 1509 1507 1505 1503 1502 1501 1499 1498 1498 1497 1496 1496
1499 1500 1509 1516 1512 1502 1499 1499 1484 1481 1484 1486 1487 1488 1490 1492 1495 1498 1501 1503 1506 1508 1510 1512 1514 1515 1515 1515 1516 1516 1515 1515 1515 1513 1512 1512 1510 1509 1506 1504 1503 1501 1500 1499 1498 1497 1497 1496 1495
1498 1498 1495 1501 1503 1508 1495 1489 1481 1479 1481 1483 1485 1486 1487 1489 1492 1495 1498 1501 1503 1505 1507 1509 1511 1513 1513 1514 1514 1514 1514 1514 1513 1512 1511 1510 1509 1507 1506 1504 1503 1501 1500 1498 1497 1497 1496 1495 1495
1496 1494 1499 1503 1511 1510 1500 1493 1486 1477 1477 1479 1481 1483 1485 1487 1490 1492 1495 1497 1500 1503 1505 1507 1509 1510 1511 1512 1512 1512 1512 1512 1511 1511 1510 1509 1508 1506 1505 1504 1503 1501 1500 1498 1497 1497 1495 1494 1494
1499 1500 1497 1497 1501 1509 1507 1494 1476 1477 1477 1477 1478 1481 1483 1485 1487 1489 1492 1494 1497 1500 1502 1504 1506 1507 1509 1509 1510 1510 1511 1510 1510 1509 1508 1507 1507 1505 1504 1503 1502 1501 1500 1499 1497 1496 1495 1494 1494
1492 1491 1494 1501 1499 1499 1502 1492 1472 1475 1476 1477 1477 1479 1481 1483 1485 1487 1489 1491 1494 1496 1499 1501 1503 1505 1506 1507 1508 1508 1509 1508 1508 1508 1507 1506 1506 1505 1504 1503 1502 1501 1499 1498 1497 1495 1494 1493 1492